This demonstration page uses our WeatherBlox Daily Observations layout. Learn more.

Left ArrowRight Arrow

39.08367, -84.50855

Hourly Observations for December 5, 2016

Temp ( °F °C ) Dew Point ( °F °C ) Humidity (%) Winds ( mph kmh ) Pressure ( in mb ) Visibility ( mi km ) Precip ( " mm )
12:53 am 00:53 Cloudy 43 6.1 40 4.4 89 89 W 10 17 29.99 1016 10 16 0.00 0.00
1:53 am 01:53 Cloudy 42 5.6 38 3.3 85 85 W 12 19 30.02 1017 10 16 0.00 0.00
2:53 am 02:53 Cloudy 41 5 37 2.8 86 86 W 7 11 30.04 1017 10 16 0.00 0.00
3:53 am 03:53 Cloudy 41 5 37 2.8 86 86 W 7 11 30.06 1018 10 16 0.00 0.00
4:53 am 04:53 Cloudy 40 4.4 35 1.7 83 83 NW 8 13 30.09 1019 10 16 0.00 0.00
5:53 am 05:53 Cloudy 39 3.9 34 1.1 82 82 WNW 3 6 30.10 1019 10 16 0.00 0.00
6:53 am 06:53 Cloudy 39 3.9 33 0.6 79 79 NNW 3 6 30.12 1020 10 16 0.00 0.00
7:53 am 07:53 Cloudy 38 3.3 32 0 79 79 NW 6 9 30.12 1020 10 16 0.00 0.00
8:53 am 08:53 Cloudy 39 3.9 32 0 76 76 NW 5 7 30.13 1020 10 16 0.00 0.00
9:53 am 09:53 Cloudy 40 4.4 32 0 73 73 Calm 30.15 1021 10 16 0.00 0.00
11:39 am 11:39 Partly Cloudy 43 6.1 34 1.1 71 71 NNE 3 6 30.15 1021 10 16 0.00 0.00
11:53 am 11:53 Partly Cloudy 41 5 33 0.6 73 73 ENE 3 6 30.14 1021 10 16 0.00 0.00
12:53 pm 12:53 Sunny 44 6.7 34 1.1 68 68 N 3 6 30.11 1020 10 16 0.00 0.00
1:53 pm 13:53 Sunny 45 7.2 35 1.7 68 68 Calm 30.09 1019 10 16 0.00 0.00
2:53 pm 14:53 Sunny 45 7.2 34 1.1 66 66 NE 6 9 30.06 1018 10 16 0.00 0.00
3:53 pm 15:53 Sunny 45 7.2 35 1.7 68 68 ENE 5 7 30.05 1018 10 16 0.00 0.00
4:53 pm 16:53 Sunny 43 6.1 35 1.7 74 74 NE 6 9 30.06 1018 10 16 0.00 0.00
5:53 pm 17:53 Clear 41 5 35 1.7 79 79 ENE 3 6 30.06 1018 10 16 0.00 0.00
6:53 pm 18:53 Clear 40 4.4 35 1.7 83 83 NE 3 6 30.04 1017 10 16 0.00 0.00
7:53 pm 19:53 Clear 37 2.8 34 1.1 89 89 NE 7 11 30.02 1017 10 16 0.00 0.00
8:53 pm 20:53 Clear 37 2.8 33 0.6 86 86 NE 7 11 30.00 1016 10 16 0.00 0.00
9:53 pm 21:53 Clear 39 3.9 35 1.7 86 86 NE 7 11 29.99 1016 10 16 0.00 0.00
10:53 pm 22:53 Clear 39 3.9 35 1.7 86 86 NE 6 9 29.97 1015 10 16 0.00 0.00
11:53 pm 23:53 Clear 39 4 34 1 81 81 NE 7 11 29.94 1014 10 16 0.00 0.00

Powered by AerisWeather